DW5274 Weather Reports


Display with metric or nautical units.
time (UTC)temp
F
wind
direction
speed
MPH
gust
MPH
rain 1hr
in
rain 24hr
in
rain mn
in
humidity
%
barometer
mb
20260901191521 77 334 0.0 0.0 0.00 0.00 0.00 49 1005.6
20260901190007 75 334 0.0 0.0 0.00 0.00 0.00 54 1005.9
20260901184502 75 279 0.0 0.0 0.00 0.00 0.00 51 1006.2
20260901183049 75 277 0.0 0.0 0.00 0.00 0.00 52 1006.0
20260901181547 75 267 0.0 0.0 0.00 0.00 0.00 51 1006.0
20260901180025 75 199 3.0 0.0 0.00 0.00 0.00 49 1005.6
20260901174525 75 207 4.0 0.0 0.00 0.00 0.00 49 1005.4
20260901173007 74 200 6.0 0.0 0.00 0.00 0.00 50 1005.4
20260901171507 74 218 5.0 0.0 0.00 0.00 0.00 50 1005.4
20260901170101 73 215 6.0 0.0 0.00 0.00 0.00 51 1005.6
20260901164548 72 213 6.0 0.0 0.00 0.00 0.00 51 1005.8
20260901163032 73 229 8.0 0.0 0.00 0.00 0.00 49 1005.9
20260901161535 76 213 5.0 0.0 0.00 0.00 0.00 45 1005.7
20260901160011 77 198 6.0 0.0 0.00 0.00 0.00 42 1005.5
20260901154507 74 196 7.0 0.0 0.00 0.00 0.00 46 1005.2
20260901153049 74 195 3.0 0.0 0.00 0.00 0.00 46 1005.4
20260901151546 73 190 0.0 0.0 0.00 0.00 0.00 48 1005.2
20260901150033 70 194 0.0 0.0 0.00 0.00 0.00 51 1005.3
20260901144532 68 190 0.0 0.0 0.00 0.00 0.00 52 1005.3
20260901143042 67 190 0.0 0.0 0.00 0.00 0.00 52 1005.2
20260901141531 65 195 0.0 0.0 0.00 0.00 0.00 55 1005.0
20260901140042 64 105 0.0 0.0 0.00 0.00 0.00 56 1005.1
20260901134531 63 103 0.0 0.0 0.00 0.00 0.00 54 1005.2
20260901133030 64 187 0.0 0.0 0.00 0.00 0.00 54 1005.1
20260901131533 64 187 0.0 0.0 0.00 0.00 0.00 53 1005.1
20260901130027 64 187 0.0 0.0 0.00 0.00 0.00 52 1005.1
20260901124510 65 187 0.0 0.0 0.00 0.00 0.00 51 1004.9
20260901123051 65 187 0.0 0.0 0.00 0.00 0.00 49 1004.8
20260901121552 65 187 0.0 0.0 0.00 0.00 0.00 49 1004.6
20260901120047 66 183 0.0 0.0 0.00 0.00 0.00 48 1004.8
20260901114531 67 183 0.0 0.0 0.00 0.00 0.00 42 1004.9
20260901113013 68 183 0.0 0.0 0.00 0.00 0.00 41 1004.6
20260901111512 68 171 0.0 0.0 0.00 0.00 0.00 41 1004.4
20260901110058 67 156 0.0 0.0 0.00 0.00 0.00 40 1004.2
20260901104555 65 153 0.0 0.0 0.00 0.00 0.00 40 1004.1
20260901103037 64 149 0.0 0.0 0.00 0.00 0.00 40 1004.0
20260901101535 67 129 0.0 0.0 0.00 0.00 0.00 34 1003.9
20260901100021 68 128 0.0 0.0 0.00 0.00 0.00 33 1003.9
20260901094527 68 128 0.0 0.0 0.00 0.00 0.00 32 1004.0
20260901093019 67 123 0.0 0.0 0.00 0.00 0.00 33 1004.1
20260901091518 67 121 0.0 0.0 0.00 0.00 0.00 33 1004.3
20260901090018 67 121 0.0 0.0 0.00 0.00 0.00 33 1004.4
20260901084516 67 116 0.0 0.0 0.00 0.00 0.00 34 1004.5
20260901083014 66 112 0.0 0.0 0.00 0.00 0.00 34 1004.7
20260901081512 66 111 0.0 0.0 0.00 0.00 0.00 35 1005.0
20260901080053 65 111 0.0 0.0 0.00 0.00 0.00 35 1005.1
20260901074551 64 109 0.0 0.0 0.00 0.00 0.00 34 1005.2
20260901073036 63 109 0.0 0.0 0.00 0.00 0.00 37 1005.3
20260901071532 63 109 0.0 0.0 0.00 0.00 0.00 39 1005.4
20260901070021 64 109 0.0 0.0 0.00 0.00 0.00 41 1005.4
20260901064515 64 109 0.0 0.0 0.00 0.00 0.00 41 1005.4
20260901063053 65 109 0.0 0.0 0.00 0.00 0.00 40 1005.4
20260901061549 66 109 0.0 0.0 0.00 0.00 0.00 38 1005.3
20260901060029 66 109 0.0 0.0 0.00 0.00 0.00 37 1005.5
20260901054527 67 109 0.0 0.0 0.00 0.00 0.00 37 1005.8
20260901053009 67 109 0.0 0.0 0.00 0.00 0.00 40 1005.9
20260901051506 68 109 0.0 0.0 0.00 0.00 0.00 41 1006.0
20260901050045 69 26 0.0 0.0 0.00 0.00 0.00 40 1006.0
20260901044554 69 26 0.0 0.0 0.00 0.00 0.00 35 1006.0
20260901043022 70 26 0.0 0.0 0.00 0.00 0.00 34 1005.7
20260901041520 71 26 0.0 0.0 0.00 0.00 0.00 34 1005.6
20260901040117 72 26 0.0 0.0 0.00 0.00 0.00 32 1005.7
20260901034609 73 26 0.0 0.0 0.00 0.00 0.00 32 1005.8
20260901033054 74 26 0.0 0.0 0.00 0.00 0.00 29 1005.7
20260901031537 76 26 0.0 0.0 0.00 0.00 0.00 29 1005.6
20260901030035 77 26 0.0 0.0 0.00 0.00 0.00 27 1005.7
20260901024518 79 26 0.0 0.0 0.00 0.00 0.00 24 1005.5
20260901023024 81 26 0.0 0.0 0.00 0.00 0.00 24 1005.6
20260901021558 83 26 0.0 0.0 0.00 0.00 0.00 22 1005.7
20260901020057 85 26 0.0 0.0 0.00 0.00 0.00 21 1005.8
20260901014550 86 218 0.0 0.0 0.00 0.00 0.00 23 1006.0
20260901013037 86 218 0.0 0.0 0.00 0.00 0.00 23 1006.2
20260901011524 86 218 0.0 0.0 0.00 0.00 0.00 19 1006.1
20260901010016 87 218 0.0 0.0 0.00 0.00 0.00 18 1006.4
20260901004606 87 218 0.0 0.0 0.00 0.00 0.00 18 1006.4
20260901003058 88 217 0.0 0.0 0.00 0.00 0.00 18 1006.6
20260901001537 88 217 0.0 0.0 0.00 0.00 0.00 17 1007.0
20260901000034 88 217 0.0 0.0 0.00 0.00 0.00 19 1007.3
20260831234516 89 217 0.0 0.0 0.00 0.00 0.00 18 1007.5
20260831233014 89 217 0.0 0.0 0.00 0.00 0.00 13 1007.6
20260831231557 89 211 0.0 0.0 0.00 0.00 0.00 13 1007.8
20260831230059 89 211 0.0 0.0 0.00 0.00 0.00 15 1008.0
20260831224531 88 211 0.0 0.0 0.00 0.00 0.00 14 1008.3
20260831223029 88 211 0.0 0.0 0.00 0.00 0.00 15 1008.6
20260831221511 88 211 0.0 0.0 0.00 0.00 0.00 14 1009.0
20260831220008 87 211 0.0 0.0 0.00 0.00 0.00 16 1009.5
20260831214547 87 211 0.0 0.0 0.00 0.00 0.00 17 1009.8
20260831213044 86 211 0.0 0.0 0.00 0.00 0.00 15 1010.0
20260831211524 86 206 0.0 0.0 0.00 0.00 0.00 18 1010.3
20260831210023 85 205 0.0 0.0 0.00 0.00 0.00 15 1010.6
20260831204601 85 205 0.0 0.0 0.00 0.00 0.00 17 1010.9
20260831203101 84 205 0.0 0.0 0.00 0.00 0.00 17 1011.2
20260831201536 84 205 0.0 0.0 0.00 0.00 0.00 19 1011.6
20260831200041 83 205 0.0 0.0 0.00 0.00 0.00 18 1011.8
20260831194511 81 177 0.0 0.0 0.00 0.00 0.00 19 1012.1
20260831193012 80 177 0.0 0.0 0.00 0.00 0.00 20 1012.4